563  
ASUS42 KRAH 151210  
RWRRAH  
NORTH CAROLINA WEATHER ROUNDUP  
NATIONAL WEATHER SERVICE RALEIGH NC  
700 AM EST THU NOV 15 2018  
 
NOTE: "FAIR" INDICATES FEW OR NO CLOUDS BELOW 12,000 FEET WITH NO  
SIGNIFICANT WEATHER AND/OR S TO VISIBILITY
.  
 
NCZ001-053-055-056-065-067-151300-  
WESTERN NORTH CAROLINA  
 
CITY SKY/WX TMP DP RH WIND PRES REMARKS
 
ASHEVILLE LGT RAIN 35 34 96 SE5 30.07F FOG WCI 31  
JEFFERSON LGT SNOW 30 29 98 N6 30.09F WCI 24  
MORGANTON LGT SNOW N/A N/A N/A W5 30.18S  
HICKORY HVY RAIN 33 33 100 N7 30.11F FOG WCI 27  
RUTHERFORDTON NOT AVBL  
MOUNT AIRY LGT RAIN 36 33 90 NE9G21 30.17F WCI 29  
BOONE LGT SNOW 32 32 100 CALM 30.09F  

 
 
NCZ021-022-025-041-071-084-088-151300-  
CENTRAL NORTH CAROLINA  
 
CITY SKY/WX TMP DP RH WIND PRES REMARKS
 
CHARLOTTE RAIN 37 35 92 N9 30.11F FOG WCI 30  
GREENSBORO HVY RAIN 34 33 96 NE16G30 30.14F FOG WCI 24  
WINSTON-SALEM CLOUDY 34 32 92 NE18G29 30.12F FOG WCI 23  
RALEIGH-DURHAM LGT RAIN 39 37 92 NE18G26 30.14F WCI 30  
FORT BRAGG LGT RAIN 42 42 99 NE13G21 30.07F  
FAYETTEVILLE LGT RAIN 43 40 89 NE17G25 30.06F  
BURLINGTON RAIN 37 34 89 NE14G28 30.15F FOG WCI 28  
LAURINBURG LGT RAIN 44 42 93 E17G29 30.04F FOG  

 
 
NCZ011-015-027-028-043-044-047-080-103-151300-  
NORTHEASTERN NORTH CAROLINA  
 
CITY SKY/WX TMP DP RH WIND PRES REMARKS
 
ROCKY MT-WILSO LGT RAIN 42 40 92 NE10G21 30.17F  
GREENVILLE LGT RAIN 46 45 93 NE12G17 30.16F  
WASHINGTON LGT RAIN 49 47 93 NE20G25 30.15F  
ELIZABETH CITY LGT RAIN 51 47 86 NE22G33 30.24F  
MANTEO RAIN 54 51 92 E22G36 30.23F  
CAPE HATTERAS RAIN 60 58 92 E14G22 30.16F FOG  

 
 
NCZ078-087-090-091-093-098-101-151300-  
SOUTHEASTERN NORTH CAROLINA  
 
CITY SKY/WX TMP DP RH WIND PRES REMARKS
 
LUMBERTON LGT RAIN 44 41 89 NE13 30.03F  
GOLDSBORO CLOUDY 45 43 93 NE18G26 30.08F  
KINSTON CLOUDY 46 46 100 NE15G21 30.11F  
KENANSVILLE DRIZZLE 46 46 100 NE6 30.07F  
NEW BERN LGT RAIN 52 51 97 NE17G26 30.12F  
CHERRY POINT RAIN 55 55 100 NE23G35 30.11F FOG  
BEAUFORT LGT RAIN 58 56 93 NE15G22 30.08F FOG  
JACKSONVILLE RAIN 53 53 100 NE21G26 30.05F FOG  
WILMINGTON LGT RAIN 53 51 93 NE17 30.00F FOG  

 
 
 
 
CLICK HERE TO GO TO PREVIOUS BULLETINS.

The Nexlab NC Page Main Text Page